Location: Unspecified
(35.7250°N, 0.0000°E)
Time: 04:31:04
(UTC+00:00)

Vanguard 2 - Pass Details

Date: 19 June 2019
Orbit: 553 x 2938 km, 32.9° (Epoch: 17 August)

Event Time Altitude Azimuth Distance (km) Brightness Sun altitude
Rises 06:58:48 0° 203° (SSW) 2,953 10.2 24.7°
Reaches altitude 10° 07:01:31 10° 183° (S) 2,244 9.9 25.2°
Maximum altitude 07:05:03 18° 139° (SE) 2,039 10.3 25.9°
Drops below altitude 10° 07:09:36 10° 99° (E) 3,026 12.0 26.8°
Sets 07:14:06 0° 83° (E) 4,478 12.7 27.7°
